| time (UTC) | temp F | wind direction | speed knots | gust knots | rain 1hr in | rain 24hr in | rain mn in | humidity % | barometer mb |
| 20260505230623 | 61 | 327 | 0.9 | 4.3 | 0.00 | 0.01 | 0.01 | 82 | 1015.7 |
| 20260505230556 | 61 | 327 | 0.9 | 4.3 | 0.00 | 0.01 | 0.01 | 82 | 1015.8 |
| 20260505230106 | 61 | 319 | 1.7 | 4.3 | 0.00 | 0.01 | 0.01 | 81 | 1015.7 |
| 20260505230049 | 61 | 319 | 3.5 | 5.2 | 0.00 | 0.01 | 0.01 | 81 | 1015.6 |
| 20260505225549 | 61 | 214 | 0.9 | 5.2 | 0.00 | 0.01 | 0.01 | 82 | 1015.6 |
| 20260505225542 | 61 | 214 | 0.9 | 5.2 | 0.00 | 0.01 | 0.01 | 82 | 1015.6 |
| 20260505225032 | 61 | 330 | 1.7 | 5.2 | 0.00 | 0.01 | 0.01 | 81 | 1015.6 |
| 20260505224528 | 61 | 330 | 3.5 | 5.2 | 0.00 | 0.01 | 0.01 | 81 | 1015.7 |
| 20260505224515 | 61 | 271 | 2.6 | 5.2 | 0.00 | 0.01 | 0.01 | 81 | 1015.7 |
| 20260505224021 | 60 | 261 | 2.6 | 5.2 | 0.00 | 0.01 | 0.01 | 82 | 1015.8 |
| 20260505223958 | 61 | 261 | 3.5 | 5.2 | 0.00 | 0.01 | 0.01 | 82 | 1015.8 |
| 20260505223441 | 60 | 281 | 2.6 | 5.2 | 0.00 | 0.01 | 0.01 | 82 | 1015.8 |
| 20260505223007 | 60 | 315 | 4.3 | 4.3 | 0.00 | 0.01 | 0.01 | 82 | 1015.8 |
| 20260505222924 | 60 | 0 | 0.0 | 4.3 | 0.00 | 0.01 | 0.01 | 82 | 1015.9 |
| 20260505222500 | 60 | 323 | 1.7 | 4.3 | 0.00 | 0.01 | 0.01 | 82 | 1015.9 |
| 20260505222407 | 60 | 270 | 2.6 | 4.3 | 0.00 | 0.01 | 0.01 | 82 | 1015.9 |
| 20260505221953 | 60 | 312 | 1.7 | 4.3 | 0.00 | 0.01 | 0.01 | 82 | 1016.0 |
| 20260505221850 | 60 | 0 | 0.0 | 4.3 | 0.00 | 0.01 | 0.01 | 82 | 1016.0 |
| 20260505221446 | 60 | 285 | 0.9 | 4.3 | 0.00 | 0.01 | 0.01 | 82 | 1016.1 |
| 20260505221333 | 60 | 285 | 0.9 | 4.3 | 0.00 | 0.01 | 0.01 | 82 | 1016.0 |
| 20260505220939 | 60 | 280 | 1.7 | 4.3 | 0.00 | 0.01 | 0.01 | 82 | 1015.9 |
| 20260505220816 | 60 | 0 | 0.0 | 4.3 | 0.00 | 0.01 | 0.01 | 82 | 1015.8 |
| 20260505220432 | 60 | 0 | 0.0 | 4.3 | 0.00 | 0.01 | 0.01 | 83 | 1015.9 |
| 20260505220259 | 60 | 224 | 0.9 | 4.3 | 0.00 | 0.01 | 0.01 | 83 | 1016.0 |
| 20260505215742 | 59 | 310 | 1.7 | 4.3 | 0.00 | 0.01 | 0.01 | 83 | 1015.9 |
| 20260505215418 | 59 | 310 | 3.5 | 4.3 | 0.00 | 0.01 | 0.01 | 83 | 1016.0 |
| 20260505215225 | 60 | 316 | 1.7 | 3.5 | 0.00 | 0.01 | 0.01 | 83 | 1016.0 |
| 20260505214911 | 60 | 295 | 2.6 | 3.5 | 0.00 | 0.01 | 0.01 | 82 | 1016.1 |
| 20260505214708 | 59 | 312 | 1.7 | 3.5 | 0.00 | 0.01 | 0.01 | 82 | 1016.1 |
| 20260505214404 | 60 | 0 | 0.0 | 3.5 | 0.00 | 0.01 | 0.01 | 83 | 1016.1 |
| 20260505214154 | 60 | 259 | 1.7 | 3.5 | 0.00 | 0.01 | 0.01 | 82 | 1016.1 |
| 20260505213857 | 60 | 296 | 3.5 | 3.5 | 0.00 | 0.01 | 0.01 | 82 | 1016.1 |
| 20260505213634 | 60 | 0 | 0.0 | 0.0 | 0.00 | 0.01 | 0.01 | 83 | 1016.1 |
| 20260505213350 | 60 | 0 | 0.0 | 0.0 | 0.00 | 0.01 | 0.01 | 83 | 1016.2 |
| 20260505213118 | 60 | 0 | 0.0 | 0.0 | 0.00 | 0.01 | 0.01 | 83 | 1016.2 |
| 20260505212843 | 60 | 0 | 0.0 | 0.0 | 0.00 | 0.01 | 0.01 | 82 | 1016.1 |
| 20260505212600 | 60 | 0 | 0.0 | 5.2 | 0.00 | 0.01 | 0.01 | 83 | 1016.1 |
| 20260505212043 | 60 | 0 | 0.0 | 5.2 | 0.00 | 0.01 | 0.01 | 83 | 1016.1 |
| 20260505211829 | 60 | 0 | 0.0 | 5.2 | 0.00 | 0.01 | 0.01 | 83 | 1016.1 |
| 20260505211526 | 59 | 323 | 0.9 | 5.2 | 0.00 | 0.01 | 0.01 | 82 | 1016.2 |
| 20260505211322 | 60 | 323 | 0.9 | 5.2 | 0.00 | 0.01 | 0.01 | 82 | 1016.2 |
| 20260505211009 | 60 | 312 | 2.6 | 5.2 | 0.00 | 0.01 | 0.01 | 82 | 1016.2 |
| 20260505210815 | 60 | 0 | 0.0 | 3.5 | 0.00 | 0.01 | 0.01 | 82 | 1016.2 |
| 20260505210452 | 60 | 270 | 2.6 | 3.5 | 0.00 | 0.01 | 0.01 | 82 | 1016.2 |
| 20260505210308 | 60 | 0 | 0.0 | 2.6 | 0.00 | 0.01 | 0.01 | 83 | 1016.1 |
| 20260505205935 | 60 | 0 | 0.0 | 3.5 | 0.00 | 0.01 | 0.01 | 83 | 1016.2 |
| 20260505205801 | 60 | 0 | 0.0 | 3.5 | 0.00 | 0.01 | 0.01 | 83 | 1016.2 |
| 20260505205418 | 60 | 0 | 0.0 | 3.5 | 0.00 | 0.01 | 0.01 | 83 | 1016.1 |
| 20260505204901 | 60 | 302 | 0.9 | 3.5 | 0.00 | 0.01 | 0.01 | 83 | 1016.2 |
| 20260505204747 | 60 | 309 | 1.7 | 3.5 | 0.00 | 0.01 | 0.01 | 83 | 1016.2 |
| 20260505204344 | 60 | 309 | 1.7 | 3.5 | 0.00 | 0.01 | 0.01 | 83 | 1016.2 |
| 20260505204240 | 60 | 319 | 1.7 | 3.5 | 0.00 | 0.01 | 0.01 | 83 | 1016.1 |
| 20260505203827 | 60 | 0 | 0.0 | 4.3 | 0.00 | 0.01 | 0.01 | 84 | 1016.0 |
| 20260505203733 | 60 | 275 | 0.9 | 4.3 | 0.00 | 0.01 | 0.01 | 84 | 1016.0 |
| 20260505203310 | 59 | 0 | 0.0 | 4.3 | 0.00 | 0.01 | 0.01 | 84 | 1016.0 |
| 20260505203226 | 59 | 0 | 0.0 | 4.3 | 0.00 | 0.01 | 0.01 | 84 | 1016.1 |
| 20260505202753 | 59 | 0 | 0.0 | 4.3 | 0.00 | 0.01 | 0.01 | 84 | 1016.1 |
| 20260505202719 | 59 | 0 | 0.0 | 4.3 | 0.00 | 0.01 | 0.01 | 84 | 1016.1 |
| 20260505202236 | 59 | 1 | 1.7 | 4.3 | 0.00 | 0.01 | 0.01 | 84 | 1016.0 |
| 20260505202212 | 59 | 1 | 4.3 | 4.3 | 0.00 | 0.01 | 0.01 | 84 | 1016.1 |
| 20260505201719 | 59 | 0 | 0.0 | 3.5 | 0.00 | 0.01 | 0.01 | 84 | 1016.1 |
| 20260505201705 | 59 | 0 | 0.0 | 3.5 | 0.00 | 0.01 | 0.01 | 84 | 1016.2 |
| 20260505201158 | 59 | 309 | 1.7 | 3.5 | 0.00 | 0.01 | 0.01 | 85 | 1016.3 |
| 20260505200645 | 59 | 0 | 0.0 | 2.6 | 0.00 | 0.01 | 0.01 | 85 | 1016.3 |
| 20260505200144 | 59 | 305 | 0.9 | 2.6 | 0.00 | 0.01 | 0.01 | 85 | 1016.3 |
| 20260505200128 | 59 | 305 | 0.9 | 2.6 | 0.00 | 0.01 | 0.01 | 85 | 1016.3 |
| 20260505195637 | 59 | 323 | 0.9 | 2.6 | 0.00 | 0.01 | 0.01 | 85 | 1016.3 |
| 20260505195611 | 59 | 323 | 0.9 | 2.6 | 0.00 | 0.01 | 0.01 | 85 | 1016.3 |
| 20260505195130 | 59 | 0 | 0.0 | 2.6 | 0.00 | 0.01 | 0.01 | 85 | 1016.3 |
| 20260505195054 | 59 | 0 | 0.0 | 2.6 | 0.00 | 0.01 | 0.01 | 85 | 1016.3 |
| 20260505194623 | 59 | 0 | 0.0 | 2.6 | 0.00 | 0.01 | 0.01 | 86 | 1016.3 |
| 20260505194118 | 59 | 0 | 0.0 | 2.6 | 0.00 | 0.01 | 0.01 | 85 | 1016.3 |
| 20260505194020 | 59 | 0 | 0.0 | 2.6 | 0.00 | 0.01 | 0.01 | 85 | 1016.3 |
| 20260505193609 | 58 | 197 | 0.0 | 0.9 | 0.00 | 0.01 | 0.01 | 85 | 1016.4 |
| 20260505193503 | 58 | 197 | 0.0 | 0.9 | 0.00 | 0.01 | 0.01 | 85 | 1016.4 |
| 20260505193102 | 59 | 0 | 0.0 | 0.0 | 0.00 | 0.01 | 0.01 | 85 | 1016.3 |
| 20260505192946 | 59 | 0 | 0.0 | 0.0 | 0.00 | 0.01 | 0.01 | 85 | 1016.3 |
| 20260505192429 | 59 | 0 | 0.0 | 0.0 | 0.00 | 0.01 | 0.01 | 86 | 1016.3 |
| 20260505192048 | 59 | 0 | 0.0 | 0.0 | 0.00 | 0.01 | 0.01 | 86 | 1016.2 |
| 20260505191912 | 59 | 0 | 0.0 | 0.0 | 0.00 | 0.01 | 0.01 | 86 | 1016.2 |
| 20260505191541 | 59 | 0 | 0.0 | 0.0 | 0.00 | 0.01 | 0.01 | 86 | 1016.2 |
| 20260505191355 | 58 | 0 | 0.0 | 0.0 | 0.00 | 0.01 | 0.01 | 87 | 1016.1 |
| 20260505191034 | 58 | 0 | 0.0 | 0.0 | 0.00 | 0.01 | 0.01 | 87 | 1016.1 |
| 20260505190838 | 58 | 0 | 0.0 | 0.0 | 0.00 | 0.01 | 0.01 | 87 | 1016.1 |
| 20260505190527 | 58 | 0 | 0.0 | 0.0 | 0.00 | 0.01 | 0.01 | 88 | 1016.1 |
| 20260505190321 | 58 | 0 | 0.0 | 0.0 | 0.00 | 0.01 | 0.01 | 88 | 1016.1 |
| 20260505190020 | 58 | 0 | 0.0 | 0.0 | 0.00 | 0.01 | 0.01 | 88 | 1016.1 |
| 20260505185804 | 58 | 0 | 0.0 | 0.0 | 0.00 | 0.01 | 0.01 | 89 | 1016.0 |
| 20260505185514 | 58 | 0 | 0.0 | 0.0 | 0.00 | 0.01 | 0.01 | 89 | 1016.0 |
| 20260505185247 | 58 | 0 | 0.0 | 0.0 | 0.00 | 0.01 | 0.01 | 89 | 1016.0 |
| 20260505185006 | 58 | 0 | 0.0 | 0.0 | 0.00 | 0.01 | 0.01 | 90 | 1016.1 |
| 20260505184730 | 58 | 0 | 0.0 | 0.0 | 0.00 | 0.01 | 0.01 | 90 | 1016.0 |
| 20260505184459 | 58 | 0 | 0.0 | 0.0 | 0.00 | 0.01 | 0.01 | 90 | 1016.1 |
| 20260505184213 | 58 | 0 | 0.0 | 0.0 | 0.00 | 0.01 | 0.01 | 90 | 1016.1 |
| 20260505183952 | 58 | 0 | 0.0 | 0.0 | 0.00 | 0.01 | 0.01 | 91 | 1016.1 |
| 20260505183656 | 57 | 0 | 0.0 | 0.0 | 0.00 | 0.01 | 0.01 | 91 | 1016.1 |
| 20260505183445 | 57 | 0 | 0.0 | 0.0 | 0.00 | 0.01 | 0.01 | 91 | 1016.1 |
| 20260505183139 | 57 | 0 | 0.0 | 0.0 | 0.00 | 0.01 | 0.01 | 91 | 1016.2 |
| 20260505182938 | 57 | 0 | 0.0 | 0.0 | 0.00 | 0.01 | 0.01 | 91 | 1016.2 |
| 20260505182622 | 57 | 0 | 0.0 | 0.0 | 0.00 | 0.01 | 0.01 | 92 | 1016.1 |
| 20260505182431 | 57 | 0 | 0.0 | 0.0 | 0.00 | 0.01 | 0.01 | 92 | 1016.0 |
| 20260505182105 | 57 | 0 | 0.0 | 0.0 | 0.00 | 0.01 | 0.01 | 92 | 1016.0 |
| 20260505181924 | 57 | 0 | 0.0 | 0.0 | 0.00 | 0.01 | 0.01 | 93 | 1016.0 |
| 20260505181548 | 57 | 0 | 0.0 | 0.0 | 0.00 | 0.01 | 0.01 | 93 | 1016.0 |
| 20260505181417 | 57 | 0 | 0.0 | 0.0 | 0.00 | 0.01 | 0.01 | 93 | 1016.0 |
| 20260505181031 | 57 | 0 | 0.0 | 0.0 | 0.00 | 0.01 | 0.01 | 93 | 1016.0 |
| 20260505180514 | 57 | 0 | 0.0 | 0.0 | 0.00 | 0.01 | 0.01 | 94 | 1015.9 |
| 20260505180403 | 57 | 0 | 0.0 | 0.0 | 0.00 | 0.01 | 0.01 | 94 | 1015.9 |
| 20260505175957 | 57 | 0 | 0.0 | 0.0 | 0.00 | 0.01 | 0.01 | 94 | 1015.9 |
| 20260505175856 | 57 | 0 | 0.0 | 0.0 | 0.00 | 0.01 | 0.01 | 94 | 1015.9 |
| 20260505175440 | 57 | 0 | 0.0 | 0.0 | 0.00 | 0.01 | 0.01 | 94 | 1015.9 |
| 20260505175349 | 57 | 0 | 0.0 | 0.0 | 0.00 | 0.01 | 0.01 | 94 | 1015.9 |
| 20260505174923 | 56 | 0 | 0.0 | 0.0 | 0.00 | 0.01 | 0.01 | 94 | 1015.9 |
| 20260505174842 | 56 | 0 | 0.0 | 0.0 | 0.00 | 0.01 | 0.01 | 94 | 1015.8 |
| 20260505174406 | 56 | 0 | 0.0 | 0.0 | 0.00 | 0.01 | 0.01 | 95 | 1015.9 |
| 20260505174335 | 56 | 0 | 0.0 | 0.0 | 0.00 | 0.01 | 0.01 | 95 | 1015.9 |
| 20260505173849 | 56 | 0 | 0.0 | 2.6 | 0.00 | 0.01 | 0.01 | 95 | 1015.9 |
| 20260505173828 | 56 | 0 | 0.0 | 2.6 | 0.00 | 0.01 | 0.01 | 95 | 1015.9 |
| 20260505173332 | 56 | 0 | 0.0 | 2.6 | 0.00 | 0.01 | 0.01 | 95 | 1015.8 |
| 20260505173321 | 56 | 0 | 0.0 | 2.6 | 0.00 | 0.01 | 0.01 | 95 | 1015.8 |
| 20260505172814 | 56 | 0 | 0.0 | 2.6 | 0.00 | 0.01 | 0.01 | 96 | 1015.8 |
| 20260505172307 | 56 | 0 | 0.0 | 0.0 | 0.00 | 0.01 | 0.01 | 96 | 1015.8 |
| 20260505172258 | 56 | 0 | 0.0 | 0.0 | 0.00 | 0.01 | 0.01 | 96 | 1015.8 |
| 20260505171800 | 56 | 0 | 0.0 | 0.0 | 0.00 | 0.01 | 0.01 | 96 | 1015.7 |
| 20260505171741 | 56 | 0 | 0.0 | 0.0 | 0.00 | 0.01 | 0.01 | 96 | 1015.7 |
| 20260505171253 | 56 | 0 | 0.0 | 0.0 | 0.00 | 0.01 | 0.01 | 96 | 1015.7 |
| 20260505171224 | 56 | 0 | 0.0 | 0.0 | 0.00 | 0.01 | 0.01 | 96 | 1015.7 |
| 20260505170746 | 55 | 0 | 0.0 | 0.0 | 0.00 | 0.01 | 0.01 | 97 | 1015.7 |
| 20260505170707 | 55 | 0 | 0.0 | 0.0 | 0.00 | 0.01 | 0.01 | 97 | 1015.7 |
| 20260505170239 | 56 | 0 | 0.0 | 0.0 | 0.00 | 0.01 | 0.01 | 97 | 1015.6 |
| 20260505165732 | 55 | 0 | 0.0 | 0.0 | 0.00 | 0.01 | 0.01 | 98 | 1015.5 |
| 20260505165633 | 55 | 0 | 0.0 | 0.0 | 0.00 | 0.01 | 0.01 | 98 | 1015.6 |
| 20260505165225 | 55 | 0 | 0.0 | 2.6 | 0.00 | 0.01 | 0.01 | 98 | 1015.5 |
| 20260505164718 | 55 | 0 | 0.0 | 2.6 | 0.00 | 0.01 | 0.01 | 98 | 1015.4 |
| 20260505164559 | 55 | 0 | 0.0 | 2.6 | 0.00 | 0.01 | 0.01 | 98 | 1015.4 |
| 20260505164211 | 55 | 0 | 0.0 | 2.6 | 0.00 | 0.01 | 0.01 | 99 | 1015.5 |
| 20260505164041 | 55 | 0 | 0.0 | 2.6 | 0.00 | 0.01 | 0.01 | 99 | 1015.5 |
| 20260505163704 | 55 | 231 | 0.9 | 2.6 | 0.00 | 0.01 | 0.01 | 99 | 1015.5 |
| 20260505163525 | 55 | 231 | 0.9 | 2.6 | 0.00 | 0.01 | 0.01 | 99 | 1015.5 |
| 20260505163009 | 55 | 0 | 0.0 | 0.0 | 0.00 | 0.01 | 0.01 | 99 | 1015.4 |
| 20260505162650 | 55 | 0 | 0.0 | 0.0 | 0.00 | 0.01 | 0.01 | 99 | 1015.5 |
| 20260505162451 | 55 | 0 | 0.0 | 0.0 | 0.00 | 0.01 | 0.01 | 99 | 1015.5 |
| 20260505162143 | 54 | 0 | 0.0 | 0.0 | 0.00 | 0.01 | 0.01 | 99 | 1015.4 |
| 20260505161933 | 54 | 0 | 0.0 | 0.0 | 0.00 | 0.01 | 0.01 | 99 | 1015.4 |
| 20260505161636 | 54 | 0 | 0.0 | 0.0 | 0.00 | 0.01 | 0.01 | 99 | 1015.4 |
| 20260505161416 | 54 | 0 | 0.0 | 0.0 | 0.00 | 0.01 | 0.01 | 99 | 1015.4 |
| 20260505161129 | 55 | 0 | 0.0 | 0.0 | 0.00 | 0.01 | 0.01 | 99 | 1015.3 |
| 20260505160859 | 55 | 0 | 0.0 | 0.0 | 0.00 | 0.01 | 0.01 | 99 | 1015.4 |
| 20260505160622 | 55 | 0 | 0.0 | 0.0 | 0.00 | 0.01 | 0.01 | 99 | 1015.5 |
| 20260505160342 | 55 | 0 | 0.0 | 0.0 | 0.00 | 0.01 | 0.01 | 99 | 1015.5 |
| 20260505153200 | 55 | 0 | 0.0 | 0.0 | 0.00 | 0.01 | 0.01 | 100 | 1015.3 |
| 20260505153033 | 55 | 0 | 0.0 | 0.0 | 0.00 | 0.01 | 0.01 | 100 | 1015.2 |
| 20260505152643 | 54 | 0 | 0.0 | 0.0 | 0.00 | 0.01 | 0.01 | 100 | 1015.2 |
| 20260505152525 | 54 | 0 | 0.0 | 0.0 | 0.00 | 0.01 | 0.01 | 100 | 1015.2 |
| 20260505152126 | 54 | 0 | 0.0 | 0.0 | 0.00 | 0.01 | 0.01 | 100 | 1015.3 |
| 20260505152018 | 54 | 0 | 0.0 | 0.0 | 0.00 | 0.01 | 0.01 | 100 | 1015.2 |
| 20260505151609 | 54 | 0 | 0.0 | 0.0 | 0.00 | 0.01 | 0.01 | 100 | 1015.2 |
| 20260505151511 | 54 | 0 | 0.0 | 0.0 | 0.00 | 0.01 | 0.01 | 100 | 1015.2 |
| 20260505151052 | 54 | 0 | 0.0 | 0.0 | 0.00 | 0.01 | 0.01 | 100 | 1015.2 |
| 20260505151005 | 54 | 0 | 0.0 | 0.0 | 0.00 | 0.01 | 0.01 | 100 | 1015.2 |
| 20260505150535 | 54 | 0 | 0.0 | 0.0 | 0.00 | 0.02 | 0.01 | 100 | 1015.2 |
| 20260505150457 | 54 | 0 | 0.0 | 0.0 | 0.00 | 0.02 | 0.01 | 100 | 1015.2 |
| 20260505140333 | 53 | 0 | 0.0 | 0.0 | 0.00 | 0.02 | 0.01 | 100 | 1014.7 |
| 20260505140211 | 53 | 0 | 0.0 | 0.0 | 0.00 | 0.02 | 0.01 | 100 | 1014.7 |
| 20260505130209 | 53 | 0 | 0.0 | 2.6 | 0.00 | 0.02 | 0.01 | 100 | 1014.1 |
| 20260505124813 | 53 | 0 | 0.0 | 2.6 | 0.00 | 0.02 | 0.01 | 100 | 1014.1 |
| 20260505124256 | 53 | 0 | 0.0 | 0.0 | 0.00 | 0.02 | 0.01 | 100 | 1014.1 |
| 20260505124141 | 53 | 0 | 0.0 | 0.0 | 0.00 | 0.02 | 0.01 | 100 | 1014.0 |
| 20260505123739 | 53 | 0 | 0.0 | 0.0 | 0.00 | 0.02 | 0.01 | 100 | 1014.0 |
| 20260505123634 | 53 | 0 | 0.0 | 0.0 | 0.00 | 0.02 | 0.01 | 100 | 1014.2 |
| 20260505123222 | 53 | 0 | 0.0 | 0.0 | 0.00 | 0.02 | 0.01 | 100 | 1014.2 |
| 20260505123127 | 53 | 0 | 0.0 | 0.0 | 0.00 | 0.02 | 0.01 | 100 | 1014.1 |
| 20260505122705 | 53 | 0 | 0.0 | 0.0 | 0.00 | 0.02 | 0.01 | 100 | 1014.1 |
| 20260505122620 | 53 | 0 | 0.0 | 0.0 | 0.00 | 0.02 | 0.01 | 100 | 1014.1 |
| 20260505122150 | 53 | 0 | 0.0 | 0.0 | 0.00 | 0.02 | 0.01 | 100 | 1014.2 |
| 20260505122113 | 53 | 0 | 0.0 | 0.0 | 0.00 | 0.02 | 0.01 | 100 | 1014.1 |
| 20260505121631 | 53 | 0 | 0.0 | 0.0 | 0.00 | 0.02 | 0.01 | 100 | 1014.0 |
| 20260505121606 | 53 | 0 | 0.0 | 0.0 | 0.00 | 0.02 | 0.01 | 100 | 1014.1 |
| 20260505121059 | 53 | 0 | 0.0 | 0.0 | 0.00 | 0.02 | 0.01 | 100 | 1014.1 |
| 20260505120558 | 53 | 0 | 0.0 | 0.0 | 0.00 | 0.02 | 0.01 | 100 | 1014.1 |
| 20260505120554 | 53 | 0 | 0.0 | 0.0 | 0.00 | 0.02 | 0.01 | 100 | 1014.1 |
| 20260505120045 | 53 | 0 | 0.0 | 0.0 | 0.00 | 0.02 | 0.01 | 100 | 1014.1 |
| 20260505120040 | 53 | 0 | 0.0 | 0.0 | 0.00 | 0.02 | 0.01 | 100 | 1014.1 |
| 20260505115540 | 53 | 0 | 0.0 | 0.0 | 0.00 | 0.02 | 0.01 | 100 | 1014.0 |
| 20260505115523 | 53 | 0 | 0.0 | 0.0 | 0.00 | 0.02 | 0.01 | 100 | 1014.0 |
| 20260505115031 | 53 | 0 | 0.0 | 0.0 | 0.00 | 0.02 | 0.01 | 100 | 1014.0 |
| 20260505115007 | 53 | 0 | 0.0 | 0.0 | 0.00 | 0.02 | 0.01 | 100 | 1014.0 |
| 20260505114524 | 53 | 0 | 0.0 | 0.0 | 0.00 | 0.02 | 0.01 | 100 | 1014.0 |
| 20260505114449 | 53 | 0 | 0.0 | 0.0 | 0.00 | 0.02 | 0.01 | 100 | 1014.0 |
| 20260505113932 | 53 | 0 | 0.0 | 0.0 | 0.00 | 0.02 | 0.01 | 100 | 1014.0 |
| 20260505113415 | 53 | 0 | 0.0 | 1.7 | 0.00 | 0.02 | 0.01 | 100 | 1013.9 |
| 20260505113003 | 53 | 0 | 0.0 | 1.7 | 0.00 | 0.02 | 0.01 | 100 | 1013.9 |
| 20260505112456 | 53 | 0 | 0.0 | 1.7 | 0.00 | 0.02 | 0.01 | 100 | 1013.8 |
| 20260505112341 | 53 | 0 | 0.0 | 1.7 | 0.00 | 0.02 | 0.01 | 100 | 1013.8 |
| 20260505111949 | 53 | 0 | 0.0 | 1.7 | 0.00 | 0.02 | 0.01 | 100 | 1013.8 |
| 20260505111824 | 53 | 0 | 0.0 | 1.7 | 0.00 | 0.02 | 0.01 | 100 | 1013.8 |
| 20260505111442 | 53 | 0 | 0.0 | 0.0 | 0.00 | 0.02 | 0.01 | 100 | 1013.9 |
| 20260505111307 | 53 | 0 | 0.0 | 0.0 | 0.00 | 0.02 | 0.01 | 100 | 1013.9 |
| 20260505110935 | 53 | 0 | 0.0 | 0.0 | 0.00 | 0.02 | 0.01 | 100 | 1013.9 |
| 20260505110750 | 53 | 0 | 0.0 | 0.0 | 0.00 | 0.02 | 0.01 | 100 | 1013.9 |
| 20260505110428 | 53 | 0 | 0.0 | 0.0 | 0.00 | 0.02 | 0.01 | 100 | 1013.9 |
| 20260505110233 | 53 | 0 | 0.0 | 0.0 | 0.00 | 0.02 | 0.01 | 100 | 1013.9 |
| 20260505101825 | 53 | 0 | 0.0 | 0.0 | 0.00 | 0.02 | 0.01 | 100 | 1013.8 |
| 20260505101500 | 53 | 0 | 0.0 | 0.0 | 0.00 | 0.02 | 0.01 | 100 | 1013.8 |
| 20260505101318 | 53 | 0 | 0.0 | 0.0 | 0.00 | 0.02 | 0.01 | 100 | 1013.8 |
| 20260505100943 | 53 | 0 | 0.0 | 0.0 | 0.00 | 0.02 | 0.01 | 100 | 1013.8 |
| 20260505100811 | 53 | 0 | 0.0 | 0.0 | 0.00 | 0.02 | 0.01 | 100 | 1013.9 |
| 20260505100426 | 53 | 0 | 0.0 | 0.0 | 0.00 | 0.02 | 0.01 | 100 | 1013.8 |
| 20260505100304 | 53 | 0 | 0.0 | 0.0 | 0.00 | 0.02 | 0.01 | 100 | 1013.9 |
| 20260505095911 | 53 | 0 | 0.0 | 0.0 | 0.00 | 0.02 | 0.01 | 100 | 1013.8 |
| 20260505095757 | 53 | 0 | 0.0 | 0.0 | 0.00 | 0.02 | 0.01 | 100 | 1013.8 |
| 20260505095353 | 53 | 0 | 0.0 | 0.0 | 0.00 | 0.02 | 0.01 | 100 | 1013.8 |
| 20260505095250 | 53 | 0 | 0.0 | 0.0 | 0.00 | 0.02 | 0.01 | 100 | 1013.8 |
| 20260505094835 | 53 | 0 | 0.0 | 0.0 | 0.00 | 0.02 | 0.01 | 100 | 1013.8 |
| 20260505094743 | 53 | 0 | 0.0 | 0.0 | 0.00 | 0.02 | 0.01 | 100 | 1013.8 |
| 20260505094318 | 53 | 0 | 0.0 | 0.0 | 0.00 | 0.02 | 0.01 | 100 | 1013.8 |
| 20260505094236 | 53 | 0 | 0.0 | 0.0 | 0.00 | 0.02 | 0.01 | 100 | 1013.8 |
| 20260505093801 | 53 | 0 | 0.0 | 0.0 | 0.00 | 0.02 | 0.01 | 100 | 1013.7 |
| 20260505093729 | 53 | 0 | 0.0 | 0.0 | 0.00 | 0.02 | 0.01 | 100 | 1013.7 |
| 20260505093244 | 53 | 0 | 0.0 | 0.0 | 0.00 | 0.02 | 0.01 | 100 | 1013.7 |
| 20260505093222 | 53 | 0 | 0.0 | 0.0 | 0.00 | 0.02 | 0.01 | 100 | 1013.7 |
| 20260505092715 | 53 | 0 | 0.0 | 0.0 | 0.00 | 0.02 | 0.01 | 100 | 1013.6 |
| 20260505092208 | 53 | 0 | 0.0 | 0.0 | 0.00 | 0.02 | 0.01 | 100 | 1013.6 |
| 20260505091653 | 53 | 0 | 0.0 | 0.0 | 0.00 | 0.02 | 0.01 | 100 | 1013.6 |
| 20260505091154 | 53 | 0 | 0.0 | 0.0 | 0.00 | 0.02 | 0.01 | 100 | 1013.7 |
| 20260505091136 | 53 | 0 | 0.0 | 0.0 | 0.00 | 0.02 | 0.01 | 100 | 1013.6 |
| 20260505090619 | 53 | 0 | 0.0 | 0.0 | 0.00 | 0.03 | 0.01 | 100 | 1013.6 |
| 20260505090140 | 53 | 0 | 0.0 | 0.0 | 0.00 | 0.03 | 0.01 | 100 | 1013.6 |
| 20260505085633 | 53 | 0 | 0.0 | 4.3 | 0.00 | 0.03 | 0.01 | 100 | 1013.6 |
| 20260505085545 | 53 | 0 | 0.0 | 4.3 | 0.00 | 0.03 | 0.01 | 100 | 1013.6 |
| 20260505085126 | 53 | 0 | 0.0 | 4.3 | 0.00 | 0.03 | 0.01 | 100 | 1013.5 |
| 20260505085029 | 53 | 0 | 0.0 | 4.3 | 0.00 | 0.03 | 0.01 | 100 | 1013.6 |
| 20260505084619 | 53 | 0 | 0.0 | 4.3 | 0.00 | 0.03 | 0.01 | 100 | 1013.5 |
| 20260505084511 | 53 | 0 | 0.0 | 4.3 | 0.00 | 0.03 | 0.01 | 100 | 1013.5 |
| 20260505084112 | 53 | 212 | 1.7 | 4.3 | 0.00 | 0.03 | 0.01 | 100 | 1013.4 |
| 20260505083954 | 53 | 212 | 1.7 | 4.3 | 0.00 | 0.03 | 0.01 | 100 | 1013.5 |
| 20260505083605 | 53 | 0 | 0.0 | 0.0 | 0.00 | 0.03 | 0.01 | 100 | 1013.4 |
| 20260505083437 | 53 | 0 | 0.0 | 0.0 | 0.00 | 0.03 | 0.01 | 100 | 1013.5 |
| 20260505083058 | 53 | 0 | 0.0 | 0.0 | 0.00 | 0.03 | 0.01 | 100 | 1013.4 |
| 20260505082920 | 53 | 0 | 0.0 | 0.0 | 0.00 | 0.03 | 0.01 | 100 | 1013.4 |
| 20260505082551 | 53 | 0 | 0.0 | 0.0 | 0.00 | 0.03 | 0.01 | 100 | 1013.4 |
| 20260505082403 | 53 | 0 | 0.0 | 0.0 | 0.00 | 0.03 | 0.01 | 100 | 1013.3 |
| 20260505082044 | 53 | 0 | 0.0 | 0.0 | 0.00 | 0.03 | 0.01 | 99 | 1013.3 |
| 20260505081846 | 53 | 0 | 0.0 | 5.2 | 0.00 | 0.03 | 0.01 | 99 | 1013.4 |
| 20260505081537 | 53 | 0 | 0.0 | 5.2 | 0.00 | 0.03 | 0.01 | 99 | 1013.4 |
| 20260505081329 | 54 | 0 | 0.0 | 5.2 | 0.00 | 0.03 | 0.01 | 99 | 1013.4 |
| 20260505081031 | 54 | 0 | 0.0 | 5.2 | 0.00 | 0.03 | 0.01 | 99 | 1013.4 |
| 20260505080814 | 54 | 0 | 0.0 | 5.2 | 0.00 | 0.03 | 0.01 | 99 | 1013.4 |
| 20260505080523 | 54 | 232 | 1.7 | 5.2 | 0.00 | 0.03 | 0.01 | 99 | 1013.4 |
| 20260505080256 | 54 | 232 | 3.5 | 5.2 | 0.00 | 0.03 | 0.01 | 99 | 1013.4 |
| 20260505080016 | 54 | 196 | 4.3 | 4.3 | 0.00 | 0.03 | 0.01 | 99 | 1013.4 |
| 20260505075738 | 54 | 0 | 0.0 | 1.7 | 0.00 | 0.03 | 0.01 | 99 | 1013.4 |
| 20260505075509 | 54 | 0 | 0.0 | 1.7 | 0.00 | 0.03 | 0.01 | 99 | 1013.4 |
| 20260505075221 | 54 | 144 | 0.9 | 1.7 | 0.00 | 0.03 | 0.01 | 99 | 1013.4 |
| 20260505075002 | 54 | 144 | 0.9 | 5.2 | 0.00 | 0.03 | 0.01 | 99 | 1013.4 |
| 20260505074704 | 54 | 221 | 1.7 | 5.2 | 0.01 | 0.03 | 0.01 | 99 | 1013.6 |
| 20260505074455 | 54 | 221 | 1.7 | 5.2 | 0.01 | 0.03 | 0.01 | 99 | 1013.5 |
| 20260505074148 | 54 | 0 | 0.0 | 5.2 | 0.01 | 0.03 | 0.01 | 99 | 1013.6 |
| 20260505073948 | 54 | 0 | 0.0 | 5.2 | 0.01 | 0.03 | 0.01 | 99 | 1013.6 |
| 20260505073113 | 54 | 0 | 0.0 | 0.9 | 0.01 | 0.03 | 0.01 | 99 | 1013.5 |
| 20260505072934 | 54 | 0 | 0.0 | 0.9 | 0.01 | 0.03 | 0.01 | 99 | 1013.6 |
| 20260505072556 | 54 | 0 | 0.0 | 0.9 | 0.01 | 0.03 | 0.01 | 99 | 1013.6 |
| 20260505072427 | 54 | 0 | 0.0 | 0.9 | 0.01 | 0.03 | 0.01 | 99 | 1013.6 |
| 20260505072039 | 54 | 205 | 0.0 | 0.9 | 0.01 | 0.03 | 0.01 | 99 | 1013.6 |
| 20260505071920 | 54 | 0 | 0.0 | 0.0 | 0.01 | 0.03 | 0.01 | 99 | 1013.5 |
| 20260505071522 | 54 | 0 | 0.0 | 0.0 | 0.01 | 0.03 | 0.01 | 99 | 1013.6 |
| 20260505071413 | 54 | 0 | 0.0 | 0.0 | 0.01 | 0.03 | 0.01 | 98 | 1013.6 |
| 20260505071005 | 54 | 0 | 0.0 | 0.0 | 0.01 | 0.03 | 0.01 | 98 | 1013.5 |
| 20260505070906 | 54 | 0 | 0.0 | 6.1 | 0.01 | 0.03 | 0.01 | 98 | 1013.5 |
| 20260505070448 | 54 | 0 | 0.0 | 6.1 | 0.01 | 0.02 | 0.01 | 98 | 1013.5 |
| 20260505070358 | 54 | 0 | 0.0 | 6.1 | 0.01 | 0.02 | 0.01 | 98 | 1013.5 |
| 20260505065931 | 54 | 205 | 0.9 | 6.1 | 0.01 | 0.02 | 0.01 | 98 | 1013.4 |
| 20260505065852 | 54 | 0 | 0.0 | 6.1 | 0.01 | 0.02 | 0.01 | 98 | 1013.4 |
| 20260505065414 | 54 | 0 | 0.0 | 6.1 | 0.01 | 0.02 | 0.01 | 98 | 1013.4 |
| 20260505065345 | 54 | 0 | 0.0 | 6.1 | 0.01 | 0.02 | 0.01 | 98 | 1013.4 |
| 20260505064857 | 54 | 0 | 0.0 | 4.3 | 0.01 | 0.02 | 0.01 | 98 | 1013.4 |
| 20260505064838 | 54 | 0 | 0.0 | 4.3 | 0.01 | 0.02 | 0.01 | 98 | 1013.4 |
| 20260505064340 | 54 | 0 | 0.0 | 4.3 | 0.00 | 0.02 | 0.01 | 98 | 1013.5 |
| 20260505064331 | 54 | 0 | 0.0 | 4.3 | 0.00 | 0.02 | 0.01 | 98 | 1013.5 |
| 20260505063823 | 54 | 0 | 0.0 | 4.3 | 0.00 | 0.02 | 0.00 | 98 | 1013.6 |
| 20260505063317 | 54 | 0 | 0.0 | 4.3 | 0.00 | 0.02 | 0.00 | 97 | 1013.6 |
| 20260505063306 | 54 | 0 | 0.0 | 4.3 | 0.00 | 0.02 | 0.00 | 97 | 1013.6 |
| 20260505062810 | 54 | 0 | 0.0 | 4.3 | 0.00 | 0.02 | 0.00 | 97 | 1013.6 |
| 20260505062749 | 54 | 0 | 0.0 | 4.3 | 0.00 | 0.02 | 0.00 | 97 | 1013.6 |
| 20260505062304 | 54 | 0 | 0.0 | 4.3 | 0.00 | 0.02 | 0.00 | 97 | 1013.6 |
| 20260505062232 | 54 | 0 | 0.0 | 4.3 | 0.00 | 0.02 | 0.00 | 97 | 1013.6 |
| 20260505061756 | 54 | 0 | 0.0 | 4.3 | 0.00 | 0.02 | 0.00 | 97 | 1013.5 |
| 20260505061715 | 54 | 200 | 1.7 | 4.3 | 0.00 | 0.02 | 0.00 | 97 | 1013.6 |
| 20260505061249 | 54 | 203 | 1.7 | 5.2 | 0.00 | 0.02 | 0.00 | 97 | 1013.6 |
| 20260505061158 | 54 | 0 | 0.0 | 5.2 | 0.00 | 0.02 | 0.00 | 97 | 1013.6 |
| 20260505060742 | 54 | 196 | 0.9 | 5.2 | 0.00 | 0.02 | 0.00 | 96 | 1013.6 |
| 20260505060641 | 54 | 179 | 0.9 | 5.2 | 0.00 | 0.02 | 0.00 | 96 | 1013.6 |
| 20260505060236 | 54 | 196 | 1.7 | 5.2 | 0.00 | 0.02 | 0.00 | 96 | 1013.5 |
| 20260505060124 | 54 | 196 | 1.7 | 5.2 | 0.00 | 0.02 | 0.00 | 96 | 1013.6 |
| 20260505055728 | 54 | 201 | 2.6 | 5.2 | 0.00 | 0.02 | 0.00 | 96 | 1013.5 |
| 20260505055607 | 54 | 201 | 2.6 | 5.2 | 0.00 | 0.02 | 0.00 | 96 | 1013.5 |
| 20260505055221 | 54 | 159 | 0.9 | 6.1 | 0.00 | 0.02 | 0.00 | 96 | 1013.5 |
| 20260505055050 | 54 | 0 | 0.0 | 6.1 | 0.00 | 0.02 | 0.00 | 96 | 1013.5 |
| 20260505054714 | 54 | 204 | 1.7 | 6.1 | 0.00 | 0.02 | 0.00 | 96 | 1013.4 |
| 20260505054533 | 54 | 204 | 1.7 | 6.1 | 0.00 | 0.02 | 0.00 | 96 | 1013.4 |
| 20260505054207 | 54 | 218 | 5.2 | 6.1 | 0.00 | 0.02 | 0.00 | 95 | 1013.4 |
| 20260505054016 | 54 | 218 | 3.5 | 6.1 | 0.00 | 0.02 | 0.00 | 95 | 1013.4 |
| 20260505053701 | 55 | 193 | 4.3 | 6.1 | 0.00 | 0.02 | 0.00 | 95 | 1013.5 |
| 20260505053459 | 55 | 0 | 0.0 | 2.6 | 0.00 | 0.02 | 0.00 | 95 | 1013.4 |
| 20260505053153 | 55 | 0 | 0.0 | 2.6 | 0.00 | 0.02 | 0.00 | 95 | 1013.5 |
| 20260505052942 | 55 | 0 | 0.0 | 2.6 | 0.00 | 0.02 | 0.00 | 95 | 1013.4 |
| 20260505052646 | 55 | 0 | 0.0 | 2.6 | 0.00 | 0.02 | 0.00 | 94 | 1013.5 |
| 20260505052425 | 55 | 0 | 0.0 | 2.6 | 0.00 | 0.02 | 0.00 | 94 | 1013.5 |
| 20260505052139 | 55 | 222 | 0.9 | 2.6 | 0.00 | 0.02 | 0.00 | 94 | 1013.4 |
| 20260505051908 | 55 | 0 | 0.0 | 0.0 | 0.00 | 0.02 | 0.00 | 94 | 1013.5 |
| 20260505051632 | 55 | 212 | 0.9 | 4.3 | 0.00 | 0.02 | 0.00 | 94 | 1013.5 |
| 20260505051351 | 55 | 0 | 0.0 | 4.3 | 0.00 | 0.02 | 0.00 | 94 | 1013.5 |
| 20260505051125 | 55 | 0 | 0.0 | 4.3 | 0.00 | 0.02 | 0.00 | 93 | 1013.5 |
| 20260505050835 | 55 | 0 | 0.0 | 4.3 | 0.00 | 0.02 | 0.00 | 93 | 1013.4 |
| 20260505050618 | 55 | 221 | 1.7 | 4.3 | 0.00 | 0.02 | 0.00 | 93 | 1013.4 |
| 20260505050317 | 55 | 0 | 0.0 | 4.3 | 0.00 | 0.02 | 0.00 | 93 | 1013.6 |
| 20260505050111 | 55 | 212 | 1.7 | 4.3 | 0.00 | 0.02 | 0.00 | 93 | 1013.7 |
| 20260505041544 | 56 | 203 | 0.9 | 6.1 | 0.00 | 0.02 | 0.00 | 90 | 1013.1 |
| 20260505041026 | 56 | 190 | 5.2 | 6.1 | 0.00 | 0.02 | 0.00 | 89 | 1013.1 |
| 20260505041001 | 56 | 193 | 5.2 | 6.1 | 0.00 | 0.02 | 0.00 | 89 | 1013.1 |
| 20260505040454 | 56 | 201 | 1.7 | 6.1 | 0.00 | 0.02 | 0.00 | 89 | 1013.0 |
| 20260505035952 | 56 | 0 | 0.0 | 6.1 | 0.00 | 0.02 | 0.00 | 89 | 1012.9 |
| 20260505035947 | 56 | 0 | 0.0 | 6.1 | 0.00 | 0.02 | 0.00 | 89 | 1012.9 |
| 20260505035436 | 56 | 200 | 5.2 | 6.1 | 0.00 | 0.02 | 0.00 | 88 | 1013.0 |
| 20260505034933 | 56 | 198 | 2.6 | 6.1 | 0.00 | 0.02 | 0.00 | 88 | 1013.0 |
| 20260505034918 | 56 | 198 | 1.7 | 6.1 | 0.00 | 0.02 | 0.00 | 88 | 1013.0 |
| 20260505034426 | 56 | 0 | 0.0 | 5.2 | 0.00 | 0.02 | 0.00 | 88 | 1012.9 |
| 20260505034401 | 56 | 0 | 0.0 | 5.2 | 0.00 | 0.02 | 0.00 | 88 | 1012.9 |
| 20260505033919 | 56 | 224 | 3.5 | 5.2 | 0.00 | 0.02 | 0.00 | 88 | 1012.9 |
| 20260505033845 | 56 | 224 | 2.6 | 5.2 | 0.00 | 0.02 | 0.00 | 88 | 1012.9 |
| 20260505033412 | 56 | 0 | 0.0 | 3.5 | 0.00 | 0.02 | 0.00 | 87 | 1012.7 |
| 20260505033327 | 56 | 0 | 0.0 | 3.5 | 0.00 | 0.02 | 0.00 | 87 | 1012.7 |
| 20260505032905 | 56 | 313 | 0.9 | 7.0 | 0.00 | 0.02 | 0.00 | 87 | 1012.7 |
| 20260505032810 | 56 | 313 | 2.6 | 7.0 | 0.00 | 0.02 | 0.00 | 87 | 1012.7 |
| 20260505032358 | 56 | 200 | 0.9 | 7.0 | 0.00 | 0.02 | 0.00 | 87 | 1012.6 |
| 20260505032255 | 56 | 256 | 2.6 | 7.0 | 0.00 | 0.02 | 0.00 | 87 | 1012.6 |
| 20260505031851 | 56 | 0 | 0.0 | 7.0 | 0.00 | 0.02 | 0.00 | 87 | 1012.5 |
| 20260505031736 | 56 | 201 | 2.6 | 7.0 | 0.00 | 0.02 | 0.00 | 87 | 1012.5 |
| 20260505031344 | 56 | 201 | 5.2 | 7.0 | 0.00 | 0.02 | 0.00 | 87 | 1012.4 |
| 20260505031219 | 56 | 203 | 4.3 | 7.0 | 0.00 | 0.02 | 0.00 | 87 | 1012.4 |
| 20260505030836 | 56 | 0 | 0.0 | 5.2 | 0.00 | 0.02 | 0.00 | 87 | 1012.5 |
| 20260505030702 | 57 | 201 | 2.6 | 5.2 | 0.00 | 0.02 | 0.00 | 87 | 1012.5 |
| 20260505030330 | 57 | 0 | 0.0 | 3.5 | 0.00 | 0.02 | 0.00 | 86 | 1012.5 |
| 20260505030145 | 57 | 232 | 2.6 | 3.5 | 0.00 | 0.02 | 0.00 | 86 | 1012.5 |
| 20260505025822 | 57 | 0 | 0.0 | 8.7 | 0.00 | 0.02 | 0.00 | 86 | 1012.5 |
| 20260505025629 | 57 | 0 | 0.0 | 8.7 | 0.00 | 0.02 | 0.00 | 86 | 1012.5 |
| 20260505025315 | 57 | 0 | 0.0 | 8.7 | 0.00 | 0.02 | 0.00 | 86 | 1012.5 |
| 20260505025111 | 57 | 235 | 1.7 | 8.7 | 0.00 | 0.02 | 0.00 | 86 | 1012.5 |
| 20260505024809 | 57 | 235 | 2.6 | 8.7 | 0.00 | 0.02 | 0.00 | 86 | 1012.5 |
| 20260505024556 | 57 | 0 | 0.0 | 8.7 | 0.00 | 0.02 | 0.00 | 86 | 1012.4 |
| 20260505024302 | 57 | 0 | 0.0 | 8.7 | 0.00 | 0.02 | 0.00 | 86 | 1012.5 |
| 20260505024037 | 57 | 193 | 4.3 | 8.7 | 0.00 | 0.02 | 0.00 | 85 | 1012.5 |
| 20260505023755 | 57 | 0 | 0.0 | 5.2 | 0.00 | 0.02 | 0.00 | 85 | 1012.5 |
| 20260505023520 | 57 | 0 | 0.0 | 5.2 | 0.00 | 0.02 | 0.00 | 85 | 1012.6 |
| 20260505023247 | 57 | 0 | 0.0 | 5.2 | 0.00 | 0.02 | 0.00 | 85 | 1012.6 |
| 20260505023003 | 57 | 0 | 0.0 | 5.2 | 0.00 | 0.02 | 0.00 | 85 | 1012.6 |
| 20260505022741 | 57 | 186 | 2.6 | 5.2 | 0.00 | 0.02 | 0.00 | 85 | 1012.5 |
| 20260505022446 | 57 | 225 | 2.6 | 2.6 | 0.00 | 0.02 | 0.00 | 85 | 1012.5 |
| 20260505022233 | 57 | 225 | 0.9 | 2.6 | 0.00 | 0.02 | 0.00 | 85 | 1012.5 |
| 20260505021930 | 57 | 225 | 0.9 | 7.0 | 0.00 | 0.02 | 0.00 | 85 | 1012.4 |
| 20260505021726 | 58 | 218 | 4.3 | 7.0 | 0.00 | 0.02 | 0.00 | 84 | 1012.4 |
| 20260505021412 | 58 | 194 | 2.6 | 7.0 | 0.00 | 0.02 | 0.00 | 84 | 1012.4 |
| 20260505021219 | 58 | 189 | 0.9 | 7.0 | 0.00 | 0.02 | 0.00 | 84 | 1012.4 |
| 20260505020856 | 58 | 0 | 0.0 | 7.0 | 0.00 | 0.02 | 0.00 | 84 | 1012.4 |
| 20260505020712 | 58 | 182 | 4.3 | 7.0 | 0.00 | 0.02 | 0.00 | 84 | 1012.4 |
| 20260505020338 | 58 | 249 | 0.9 | 7.0 | 0.00 | 0.02 | 0.00 | 84 | 1012.5 |
| 20260505020205 | 58 | 218 | 4.3 | 7.0 | 0.00 | 0.02 | 0.00 | 84 | 1012.4 |
| 20260505015821 | 58 | 0 | 0.0 | 7.8 | 0.00 | 0.02 | 0.00 | 83 | 1012.4 |
| 20260505015658 | 58 | 233 | 1.7 | 7.8 | 0.00 | 0.02 | 0.00 | 83 | 1012.5 |
| 20260505015306 | 58 | 226 | 0.9 | 7.8 | 0.00 | 0.02 | 0.00 | 83 | 1012.5 |
| 20260505015151 | 58 | 191 | 2.6 | 7.8 | 0.00 | 0.02 | 0.00 | 83 | 1012.5 |
| 20260505014747 | 58 | 235 | 1.7 | 7.8 | 0.00 | 0.02 | 0.00 | 82 | 1012.5 |
| 20260505014231 | 58 | 197 | 7.0 | 7.8 | 0.00 | 0.02 | 0.00 | 82 | 1012.6 |
| 20260505013713 | 59 | 231 | 1.7 | 7.0 | 0.00 | 0.02 | 0.00 | 81 | 1012.6 |
| 20260505013631 | 59 | 266 | 0.9 | 7.0 | 0.00 | 0.02 | 0.00 | 81 | 1012.6 |
| 20260505013156 | 59 | 228 | 1.7 | 7.0 | 0.00 | 0.02 | 0.00 | 81 | 1012.6 |
| 20260505013124 | 59 | 228 | 1.7 | 7.0 | 0.00 | 0.02 | 0.00 | 81 | 1012.6 |
| 20260505012639 | 59 | 246 | 4.3 | 7.0 | 0.00 | 0.02 | 0.00 | 80 | 1012.6 |
| 20260505012616 | 59 | 210 | 3.5 | 7.0 | 0.00 | 0.02 | 0.00 | 80 | 1012.6 |
| 20260505012122 | 59 | 268 | 3.5 | 7.0 | 0.00 | 0.02 | 0.00 | 80 | 1012.6 |
| 20260505012109 | 59 | 268 | 3.5 | 7.0 | 0.00 | 0.02 | 0.00 | 80 | 1012.6 |
| 20260505011602 | 60 | 260 | 3.5 | 7.8 | 0.00 | 0.02 | 0.00 | 79 | 1012.7 |
| 20260505011048 | 60 | 217 | 2.6 | 7.8 | 0.00 | 0.02 | 0.00 | 79 | 1012.7 |
| 20260505010548 | 60 | 256 | 2.6 | 7.8 | 0.00 | 0.02 | 0.00 | 79 | 1012.7 |
| 20260505010531 | 60 | 256 | 2.6 | 7.8 | 0.00 | 0.02 | 0.00 | 79 | 1012.7 |
| 20260505010041 | 60 | 205 | 5.2 | 7.8 | 0.00 | 0.02 | 0.00 | 79 | 1012.8 |
| 20260505010014 | 60 | 204 | 7.0 | 7.0 | 0.00 | 0.02 | 0.00 | 78 | 1012.8 |
| 20260505005534 | 60 | 263 | 2.6 | 6.1 | 0.00 | 0.02 | 0.00 | 78 | 1012.9 |
| 20260505005458 | 60 | 201 | 1.7 | 6.1 | 0.00 | 0.02 | 0.00 | 78 | 1012.9 |
| 20260505005028 | 60 | 278 | 5.2 | 6.1 | 0.00 | 0.02 | 0.00 | 78 | 1012.9 |
| 20260505004940 | 60 | 226 | 3.5 | 6.1 | 0.00 | 0.02 | 0.00 | 78 | 1013.0 |
| 20260505004520 | 61 | 259 | 4.3 | 6.1 | 0.00 | 0.02 | 0.00 | 77 | 1013.1 |
| 20260505004014 | 61 | 264 | 2.6 | 6.1 | 0.00 | 0.02 | 0.00 | 76 | 1013.1 |
| 20260505003906 | 61 | 264 | 2.6 | 6.1 | 0.00 | 0.02 | 0.00 | 76 | 1013.1 |
| 20260505003506 | 61 | 233 | 3.5 | 5.2 | 0.00 | 0.02 | 0.00 | 75 | 1013.2 |
| 20260505002959 | 62 | 257 | 2.6 | 7.8 | 0.00 | 0.02 | 0.00 | 74 | 1013.2 |
| 20260505002832 | 62 | 257 | 2.6 | 7.8 | 0.00 | 0.02 | 0.00 | 74 | 1013.2 |
| 20260505002452 | 63 | 249 | 4.3 | 7.8 | 0.00 | 0.02 | 0.00 | 73 | 1013.2 |
| 20260505002315 | 63 | 249 | 5.2 | 7.8 | 0.00 | 0.02 | 0.00 | 73 | 1013.2 |
| 20260505001945 | 63 | 280 | 3.5 | 7.8 | 0.00 | 0.02 | 0.00 | 73 | 1013.3 |
| 20260505001242 | 64 | 208 | 3.5 | 7.8 | 0.00 | 0.02 | 0.00 | 72 | 1013.2 |
| 20260505000931 | 65 | 208 | 6.1 | 7.8 | 0.00 | 0.02 | 0.00 | 72 | 1013.2 |
| 20260504235917 | 65 | 168 | 5.2 | 7.8 | 0.00 | 0.02 | 0.02 | 71 | 1013.3 |
| 20260504235410 | 66 | 198 | 5.2 | 5.2 | 0.00 | 0.02 | 0.02 | 70 | 1013.4 |
| 20260504235133 | 66 | 201 | 1.7 | 7.8 | 0.00 | 0.02 | 0.02 | 71 | 1013.2 |
| 20260504234903 | 66 | 0 | 0.0 | 7.8 | 0.00 | 0.02 | 0.02 | 70 | 1013.2 |
| 20260504234616 | 66 | 204 | 3.5 | 7.8 | 0.00 | 0.02 | 0.02 | 70 | 1013.3 |
| 20260504234356 | 66 | 235 | 2.6 | 7.8 | 0.00 | 0.02 | 0.02 | 70 | 1013.2 |
| 20260504234059 | 66 | 219 | 3.5 | 7.8 | 0.00 | 0.02 | 0.02 | 70 | 1013.2 |
| 20260504233849 | 66 | 260 | 5.2 | 7.8 | 0.00 | 0.02 | 0.02 | 70 | 1013.2 |
| 20260504233542 | 66 | 196 | 3.5 | 7.8 | 0.00 | 0.02 | 0.02 | 70 | 1013.2 |
| 20260504233343 | 66 | 292 | 3.5 | 7.0 | 0.00 | 0.02 | 0.02 | 71 | 1013.2 |
| 20260504232508 | 66 | 282 | 2.6 | 7.8 | 0.00 | 0.02 | 0.02 | 71 | 1013.3 |
| 20260504231951 | 66 | 295 | 3.5 | 7.8 | 0.00 | 0.02 | 0.02 | 71 | 1013.4 |
| 20260504231434 | 66 | 280 | 2.6 | 7.8 | 0.00 | 0.02 | 0.02 | 70 | 1013.2 |
| 20260504231314 | 66 | 280 | 2.6 | 7.8 | 0.00 | 0.02 | 0.02 | 70 | 1013.2 |